Camden, SC

2:14 PM EDT on May 26, 2017 (GMT -0400)
Woodward

Weather History for KCDN - August, 2014

Change the Weather History Date:

Saturday, August 2, 2014

  Actual Average (KSSC) Record (KSSC)
Temperature  
Mean Temperature 68 °F -  
Max Temperature 71 °F 87 °F 100 °F (2006)
Min Temperature 66 °F 68 °F 60 °F (1997)
Cooling Degree Days 4    
Growing Degree Days 18 (Base 50)    
Moisture  
Dew Point 66 °F    
Average Humidity 93    
Maximum Humidity 100    
Minimum Humidity 83    
Precipitation  
Precipitation 0.42 in - - ()
Sea Level Pressure  
Sea Level Pressure 30.09 in    
Wind  
Wind Speed 7 mph (NNE)    
Max Wind Speed 9 mph    
Max Gust Speed -    
Visibility 7 miles    
Events Rain    
Averages and records for this station are not official NWS values.
T = Trace of Precipitation, MM = Missing Value Source: NWS Daily Summary

Daily Weather History Graph

Daily Weather History Graph

Search for Another Location

Airport or City:

Trip Planner

Search our weather history database for the weather conditions in past years. The results will help you decide how hot, cold, wet, or windy it might be!

Date:

Astronomy

Aug. 02, 2014 Rise Set
Actual Time 6:33 AM EDT 8:22 PM EDT
Civil Twilight 6:06 AM EDT 8:50 PM EDT
Nautical Twilight 5:33 AM EDT 9:23 PM EDT
Astronomical Twilight 4:57 AM EDT 9:58 PM EDT
Moon 12:35 PM EDT (8/2) 11:59 PM EDT (8/2)
Length of Visible Light 14h 43m
Length of Day
13h 48m
Waxing Crescent, 36% of the Moon is Illuminated
Aug 2
Waxing Crescent
Aug 3
First Quarter
Aug 10
Full
Aug 17
Last Quarter
Aug 25
New

Hourly Weather History & Observations

Time (EDT) Temp. Dew Point Humidity Pressure Visibility Wind Dir Wind Speed Gust Speed Precip Events Conditions
12:15 AM 69.8 °F 68.0 °F 94% 30.09 in 8.0 mi NNE 6.9 mph - N/A   Overcast
12:35 AM 69.8 °F 68.0 °F 94% 30.09 in 10.0 mi NE 9.2 mph - N/A   Overcast
12:55 AM 68.0 °F 66.2 °F 94% 30.09 in 10.0 mi NNE 8.1 mph - N/A   Overcast
1:15 AM 68.0 °F 66.2 °F 94% 30.08 in 8.0 mi NNE 5.8 mph - N/A   Overcast
1:35 AM 68.0 °F 66.2 °F 94% 30.08 in 9.0 mi NNE 8.1 mph - N/A   Overcast
1:55 AM 68.0 °F 66.2 °F 94% 30.08 in 10.0 mi NNE 5.8 mph - N/A   Overcast
2:15 AM 68.0 °F 66.2 °F 94% 30.07 in 6.0 mi North 6.9 mph - N/A   Overcast
2:35 AM 68.0 °F 68.0 °F 100% 30.06 in 5.0 mi North 6.9 mph - N/A   Overcast
2:55 AM 68.0 °F 66.2 °F 94% 30.06 in 7.0 mi NNE 8.1 mph - N/A   Overcast
3:15 AM 68.0 °F 66.2 °F 94% 30.06 in 8.0 mi NNE 5.8 mph - N/A   Overcast
3:35 AM 68.0 °F 66.2 °F 94% 30.07 in 4.0 mi NNE 5.8 mph - N/A   Overcast
3:55 AM 68.0 °F 66.2 °F 94% 30.06 in 7.0 mi NNE 6.9 mph - N/A   Overcast
4:15 AM 68.0 °F 66.2 °F 94% 30.07 in 8.0 mi NNE 5.8 mph - N/A   Overcast
4:35 AM 68.0 °F 66.2 °F 94% 30.07 in 8.0 mi NNE 8.1 mph - N/A   Overcast
4:55 AM 68.0 °F 66.2 °F 94% 30.07 in 8.0 mi NNE 6.9 mph - N/A   Overcast
5:15 AM 68.0 °F 66.2 °F 94% 30.07 in 9.0 mi North 5.8 mph - N/A   Overcast
5:35 AM 68.0 °F 66.2 °F 94% 30.06 in 8.0 mi NNE 4.6 mph - N/A   Overcast
5:55 AM 68.0 °F 64.4 °F 88% 30.06 in 10.0 mi NNE 6.9 mph - N/A   Overcast
6:15 AM 66.2 °F 64.4 °F 94% 30.07 in 9.0 mi NNE 5.8 mph - N/A   Overcast
6:35 AM 66.2 °F 64.4 °F 94% 30.07 in 8.0 mi NNE 6.9 mph - N/A   Overcast
6:55 AM 66.2 °F 64.4 °F 94% 30.07 in 3.0 mi NNE 9.2 mph - N/A   Overcast
7:15 AM 66.2 °F 64.4 °F 94% 30.07 in 5.0 mi NNE 8.1 mph - N/A   Overcast
7:35 AM 66.2 °F 64.4 °F 94% 30.08 in 5.0 mi NNE 6.9 mph - N/A   Overcast
7:55 AM 66.2 °F 66.2 °F 100% 30.09 in 5.0 mi North 5.8 mph - N/A   Overcast
8:15 AM 66.2 °F 66.2 °F 100% 30.10 in 5.0 mi North 5.8 mph - N/A   Overcast
8:55 AM 68.0 °F 64.4 °F 88% 30.10 in 8.0 mi NE 9.2 mph - N/A   Overcast
9:15 AM 68.0 °F 64.4 °F 88% 30.11 in 8.0 mi NE 8.1 mph - N/A   Overcast
9:35 AM 68.0 °F 64.4 °F 88% 30.12 in 8.0 mi NNE 8.1 mph - N/A   Overcast
9:55 AM 68.0 °F 64.4 °F 88% 30.12 in 9.0 mi NNE 8.1 mph - N/A   Overcast
10:15 AM 68.0 °F 64.4 °F 88% 30.12 in 9.0 mi NE 9.2 mph - N/A   Overcast
10:35 AM 68.0 °F 66.2 °F 94% 30.13 in 2.5 mi NNE 6.9 mph - 0.09 in Rain Rain
10:55 AM 68.0 °F 66.2 °F 94% 30.13 in 3.0 mi NNE 6.9 mph - 0.12 in Rain Light Rain
11:15 AM 68.0 °F 66.2 °F 94% 30.12 in 4.0 mi North 5.8 mph - N/A Rain Light Rain
11:35 AM 68.0 °F 66.2 °F 94% 30.13 in 4.0 mi North 5.8 mph - 0.02 in Rain Light Rain
11:55 AM 68.0 °F 68.0 °F 100% 30.13 in 2.0 mi North 5.8 mph - 0.12 in Rain Rain
12:15 PM 68.0 °F 66.2 °F 94% 30.12 in 4.0 mi NE 6.9 mph - 0.01 in Rain Light Rain
12:35 PM 68.0 °F 66.2 °F 94% 30.12 in 9.0 mi NE 8.1 mph - 0.01 in   Overcast
12:55 PM 68.0 °F 66.2 °F 94% 30.12 in 5.0 mi North 6.9 mph - 0.02 in Rain Light Rain
1:15 PM 68.0 °F 66.2 °F 94% 30.12 in 4.0 mi NNE 3.5 mph - 0.03 in Rain Rain
1:35 PM 68.0 °F 66.2 °F 94% 30.12 in 6.0 mi NNE 5.8 mph - 0.05 in Rain Light Rain
1:55 PM 68.0 °F 68.0 °F 100% 30.12 in 7.0 mi NNE 5.8 mph - 0.05 in Rain Light Rain
2:15 PM 68.0 °F 68.0 °F 100% 30.12 in 8.0 mi NE 5.8 mph - N/A Rain Light Rain
2:35 PM 68.0 °F 68.0 °F 100% 30.11 in 6.0 mi NE 4.6 mph - N/A Rain Light Rain
2:55 PM 68.0 °F 68.0 °F 100% 30.11 in 3.0 mi Calm Calm - 0.03 in Rain Light Rain
3:15 PM 68.0 °F 68.0 °F 100% 30.12 in 3.0 mi NNW 5.8 mph - 0.01 in Rain Light Rain
3:55 PM 68.0 °F 68.0 °F 100% 30.11 in 3.0 mi North 5.8 mph - 0.06 in Rain Light Rain
4:15 PM 69.8 °F 68.0 °F 94% 30.09 in 4.0 mi NNE 5.8 mph - 0.01 in Rain Light Rain
4:35 PM 69.8 °F 68.0 °F 94% 30.08 in 9.0 mi NNE 5.8 mph - 0.02 in Rain Light Rain
4:55 PM 71.6 °F 68.0 °F 88% 30.08 in 10.0 mi North 6.9 mph - 0.02 in   Mostly Cloudy
5:15 PM 71.6 °F 68.0 °F 88% 30.07 in 10.0 mi NE 6.9 mph - N/A   Mostly Cloudy
5:35 PM 71.6 °F 68.0 °F 88% 30.08 in 10.0 mi NNE 4.6 mph - N/A   Mostly Cloudy
5:55 PM 71.6 °F 66.2 °F 83% 30.07 in 10.0 mi NE 9.2 mph - N/A   Mostly Cloudy
6:15 PM 71.6 °F 68.0 °F 88% 30.08 in 10.0 mi NE 6.9 mph - N/A   Mostly Cloudy
6:35 PM 71.6 °F 68.0 °F 88% 30.08 in 10.0 mi NNE 6.9 mph - N/A   Overcast
6:55 PM 71.6 °F 68.0 °F 88% 30.08 in 10.0 mi NE 8.1 mph - N/A   Overcast
7:35 PM 69.8 °F 66.2 °F 88% 30.09 in 9.0 mi NE 4.6 mph - N/A   Overcast
7:55 PM 69.8 °F 66.2 °F 88% 30.10 in 7.0 mi NE 4.6 mph - N/A Rain Light Rain
8:15 PM 69.8 °F 66.2 °F 88% 30.10 in 8.0 mi NE 5.8 mph - N/A   Overcast
8:35 PM 68.0 °F 66.2 °F 94% 30.10 in 9.0 mi NNE 6.9 mph - N/A   Overcast
8:55 PM 68.0 °F 66.2 °F 94% 30.09 in 9.0 mi NE 4.6 mph - N/A   Overcast
9:15 PM 68.0 °F 66.2 °F 94% 30.09 in 10.0 mi NE 5.8 mph - N/A   Overcast
9:35 PM 68.0 °F 66.2 °F 94% 30.10 in 10.0 mi NNE 5.8 mph - N/A   Overcast
9:55 PM 68.0 °F 66.2 °F 94% 30.11 in 10.0 mi NNE 3.5 mph - N/A   Overcast
10:15 PM 68.0 °F 66.2 °F 94% 30.11 in 10.0 mi NNE 4.6 mph - N/A   Overcast
10:35 PM 68.0 °F 66.2 °F 94% 30.10 in 9.0 mi NE 4.6 mph - N/A   Overcast
10:55 PM 68.0 °F 66.2 °F 94% 30.10 in 8.0 mi ENE 3.5 mph - N/A   Overcast
11:15 PM 68.0 °F 66.2 °F 94% 30.10 in 8.0 mi NNE 3.5 mph - N/A   Overcast
11:35 PM 68.0 °F 66.2 °F 94% 30.11 in 8.0 mi NNE 5.8 mph - N/A   Overcast
11:55 PM 68.0 °F 66.2 °F 94% 30.12 in 8.0 mi ENE 4.6 mph - N/A   Overcast